Temperature
5 6 6 7 7 8 8 8 8 10 11 13 13 14 14 15 16 15 15 14 14 13 13 14 14 14 14 14 14 14 14 13 13 12 12 12 11 11 11 10 10 10 10 9
5 7 7 7 8 8 8 9 9 10 11 12 13 14 14 14 14 14 14 14 13 13 13 13 14 14 14 14 14 14 13 13 13 12 12 11 11 11 10 10 10 10 9 9
4 6 6 6 8 8 8 9 10 10 11 12 12 12 12 13 13 13 13 13 13 13 13 14 14 14 14 14 14 13 13 13 12 12 12 11 11 10 10 10 9 9 9 9
3 5 4 7 9 10 9 9 10 10 10 11 11 12 13 12 12 12 12 13 13 13 13 13 14 14 14 14 14 13 13 13 13 12 11 11 11 10 10 9 9 9 9 9
3 4 5 8 9 9 9 9 9 9 10 10 11 12 12 12 12 12 12 13 13 13 13 13 13 14 14 13 13 13 13 13 12 12 11 11 10 10 10 9 9 9 9 8
2 3 5 7 9 9 9 8 8 8 9 9 10 10 10 11 12 12 12 13 13 13 13 13 13 13 13 13 13 13 13 13 12 12 11 11 10 10 9 9 9 8 8 8
2 3 5 8 8 9 7 7 7 8 8 8 8 9 10 11 11 12 12 12 13 13 13 13 13 13 13 13 13 13 13 12 12 12 11 11 10 10 9 9 8 8 8 7
3 3 4 7 7 7 6 7 7 7 7 7 8 9 9 10 10 11 11 12 12 12 12 12 13 13 13 13 13 13 12 12 12 11 11 10 10 9 9 8 8 8 7 7
4 4 6 7 7 7 7 7 7 7 7 7 7 8 8 9 9 10 11 11 12 12 12 12 12 13 13 13 13 12 12 12 11 11 10 10 10 9 9 8 8 8 7 7
4 5 6 7 7 7 6 6 6 6 6 7 7 7 8 8 9 9 10 10 11 11 11 11 11 12 13 13 12 12 12 11 11 11 10 9 9 9 8 8 8 7 7 6
3 5 5 6 7 7 6 6 6 6 6 6 6 7 7 7 8 9 9 10 10 10 11 11 11 11 12 12 12 11 11 11 10 10 10 9 8 8 8 8 8 8 7 7
3 5 5 5 6 6 6 6 6 6 6 6 6 6 6 7 7 8 8 9 9 10 10 10 10 11 11 11 11 11 11 10 10 9 9 8 8 7 7 7 6 6 6 6
5 5 5 5 5 5 5 5 5 5 5 5 6 6 6 6 7 7 8 8 9 9 9 10 10 10 10 10 10 11 11 10 10 9 9 8 8 8 7 6 6 5 5 5
4 4 4 5 5 5 5 5 5 5 5 5 5 6 6 6 6 7 7 8 8 8 9 9 9 9 10 10 10 10 10 10 10 10 9 9 8 8 8 7 6 5 4 4
3 4 4 4 4 4 4 4 4 4 5 5 5 5 5 6 6 6 7 7 7 7 8 8 8 8 9 9 9 9 9 9 9 9 8 8 8 7 7 6 6 5 4 4
3 3 3 3 3 4 4 4 4 4 4 4 5 5 5 5 5 6 6 7 7 7 7 7 8 8 8 8 8 8 8 9 9 8 8 8 7 7 6 6 6 5 4 4
2 2 3 3 3 3 3 3 3 4 4 4 4 4 4 5 5 5 6 6 6 6 6 7 7 7 7 7 8 8 8 7 8 8 8 8 7 7 6 6 5 5 4 3
1 1 1 2 2 2 2 3 3 3 4 4 4 4 4 4 4 5 5 5 5 5 5 6 6 7 7 7 7 7 7 7 7 7 7 7 7 6 6 6 5 4 3 2
0 0 1 1 1 1 2 2 2 3 3 3 3 4 4 4 4 4 4 4 4 4 5 5 6 6 6 6 7 7 7 7 7 7 7 6 6 6 5 5 4 4 3 2
-1 -0 -0 -0 0 0 1 1 2 2 2 3 3 3 3 3 3 3 4 4 4 5 5 5 5 5 6 6 6 6 6 7 7 7 6 6 6 5 5 4 4 3 2 2
-1 -1 -1 -1 -1 -0 0 1 1 1 2 2 3 3 3 3 3 3 3 3 4 4 4 5 5 5 5 6 6 6 6 7 7 7 6 6 6 5 5 4 3 3 2 1
-2 -2 -2 -2 -1 -1 -0 0 1 1 2 2 2 3 3 2 2 2 3 3 4 4 4 4 5 5 5 5 6 6 6 6 6 6 6 6 5 5 4 3 3 2 1 1
-3 -3 -3 -2 -2 -2 -1 -0 0 1 1 1 2 2 2 2 2 2 2 3 3 4 4 5 5 5 5 5 6 6 6 6 6 6 6 5 5 4 4 3 2 2 1 0
-4 -3 -3 -3 -3 -2 -2 -1 -0 0 1 1 1 2 2 2 2 2 3 3 4 4 4 4 4 4 5 5 5 5 5 5 5 5 5 5 4 4 3 2 2 1 0 -0
-4 -4 -4 -3 -3 -3 -2 -1 -1 -0 0 0 1 1 1 2 2 2 3 3 3 3 4 4 4 4 4 5 5 5 5 5 5 5 5 4 4 3 2 2 1 0 -0 -1
-5 -4 -4 -4 -3 -3 -2 -2 -1 -1 -0 -0 -0 0 1 1 1 2 2 2 3 3 3 3 3 4 4 4 4 4 4 4 4 4 4 3 3 2 2 1 0 -0 -1 -2
-5 -5 -4 -4 -3 -3 -2 -2 -2 -1 -1 -0 -0 -0 0 0 1 1 2 2 2 2 3 3 3 3 3 3 3 3 3 4 3 3 3 2 2 1 1 0 -0 -1 -2 -2
Wind_Speed
12 13 11 12 13 14 14 12 10 11 12 12 8 6 4 2 5 7 8 9 9 9 8 9 9 10 9 10 12 12 13 13 13 12 12 11 11 11 11 11 11 10 10 9
11 12 12 14 14 15 17 16 17 17 17 9 8 5 3 1 5 6 7 8 9 9 10 10 11 11 10 10 11 12 13 12 12 12 12 12 12 11 11 11 10 11 10 10
7 8 9 11 13 15 14 13 14 16 13 7 7 4 2 1 1 3 4 6 8 8 9 10 10 11 11 11 11 12 12 12 13 13 13 12 12 12 12 11 10 10 10 10
5 5 8 7 6 10 13 12 11 11 9 7 7 5 2 0 0 1 2 4 6 7 8 7 7 9 9 11 12 12 12 13 13 13 13 13 13 12 11 10 10 10 10 10
4 5 8 8 6 7 9 10 7 8 8 7 8 5 4 3 2 2 3 3 5 6 8 8 9 10 11 11 11 12 13 13 14 14 14 14 14 12 11 10 9 9 10 10
5 5 6 4 3 2 4 6 3 5 6 6 4 4 5 4 4 2 1 1 3 6 8 9 9 11 12 12 13 13 13 13 14 14 14 14 13 12 10 10 10 10 9 9
9 7 7 6 5 1 3 3 4 4 5 5 4 5 7 5 4 2 1 1 3 6 8 9 10 11 12 12 13 12 13 13 13 13 14 14 12 11 12 11 11 10 10 9
7 9 8 5 2 1 2 3 3 4 5 7 8 8 7 5 4 3 2 1 2 4 6 8 10 12 11 12 11 13 14 14 14 14 13 13 14 12 12 13 13 11 10 9
6 8 6 5 3 3 3 4 5 5 6 6 8 9 8 6 5 4 2 2 3 4 6 7 10 11 12 11 12 15 15 14 14 14 12 13 14 14 13 11 10 10 9 9
8 9 9 9 7 5 4 5 6 6 7 7 8 8 8 7 5 5 3 2 2 3 6 7 9 10 10 11 13 16 16 15 14 14 13 12 10 11 11 11 10 10 10 9
11 12 11 10 8 7 8 7 7 7 7 7 8 8 8 7 6 5 4 3 3 5 6 7 8 9 11 13 14 15 16 15 14 13 13 12 9 7 9 7 10 12 10 10
12 10 10 10 10 10 10 10 8 8 9 8 8 9 8 8 7 6 4 3 3 4 5 7 9 10 11 13 15 17 16 15 13 12 12 12 12 11 13 11 14 14 13 12
15 14 13 13 13 12 11 11 10 10 10 10 8 8 8 8 7 6 5 5 5 5 5 7 9 11 12 13 15 16 16 15 13 13 13 13 12 13 12 12 15 15 16 16
12 12 14 13 13 12 11 11 10 10 10 9 8 7 7 7 6 6 6 5 5 5 6 7 9 11 12 13 14 15 15 16 15 13 13 13 12 12 12 13 11 8 10 16
14 13 14 13 13 12 10 9 10 10 10 9 7 7 7 7 7 6 5 4 4 5 6 8 10 10 11 13 14 16 15 13 13 12 12 12 12 12 11 12 11 10 9 10
11 11 12 12 13 12 11 11 11 11 10 9 8 8 7 7 6 5 4 5 7 8 8 9 10 10 12 13 14 13 12 17 16 14 13 13 12 12 12 12 11 10 10 9
11 11 11 11 12 12 11 11 11 11 10 9 9 7 6 5 4 4 4 4 5 5 6 8 9 10 11 13 14 13 13 15 18 15 12 13 12 12 12 12 11 10 8 10
8 10 10 11 11 12 12 11 11 11 10 9 7 6 6 7 6 5 4 4 5 4 4 7 9 11 12 13 13 13 13 13 12 13 12 12 12 11 11 11 12 11 9 10
9 10 11 12 12 12 12 11 11 10 9 8 7 7 7 6 6 5 5 6 8 7 6 9 14 13 12 14 15 12 13 14 13 12 12 16 14 11 11 11 11 10 10 9
10 10 11 12 13 12 12 11 10 9 8 7 7 7 7 6 6 6 6 6 5 5 8 12 13 12 13 15 16 13 14 15 15 14 13 12 12 12 11 11 11 10 9 8
12 12 12 13 13 12 11 11 10 9 7 7 7 8 7 6 6 7 7 6 5 8 11 14 11 11 12 14 16 13 14 14 14 14 13 13 13 12 12 11 11 10 9 8
12 12 13 13 12 12 10 9 8 8 7 6 6 6 7 7 7 6 5 5 8 12 11 10 10 14 16 17 12 13 13 14 13 12 12 12 13 12 12 11 10 10 9 8
12 12 13 12 12 11 10 8 7 6 6 6 6 7 7 7 7 7 6 6 8 13 11 9 15 21 22 14 12 13 14 14 13 12 12 12 12 12 12 12 10 10 9 8
13 12 12 12 10 10 10 8 5 4 4 4 5 6 6 6 4 4 5 11 14 14 10 15 22 23 20 11 12 12 12 13 12 12 12 11 11 11 11 11 10 9 9 9
12 12 11 11 9 7 7 5 3 3 3 3 3 4 4 4 5 6 8 11 16 15 12 17 22 21 14 11 12 12 12 12 13 13 12 12 12 11 11 10 10 9 9 8
11 10 9 9 8 6 4 3 2 2 3 3 3 4 4 5 7 8 9 11 13 15 12 11 13 14 11 11 12 12 12 13 14 12 12 12 12 12 11 10 11 9 8 8
10 9 7 6 5 3 2 1 2 2 3 5 5 5 6 7 7 9 11 11 11 11 10 10 10 11 11 12 12 11 11 11 11 11 11 11 11 10 11 11 9 8 8 8
Wind_Direction
272 273 262 250 242 235 231 233 244 258 270 274 285 287 271 182 162 153 152 156 157 160 160 158 157 157 158 159 159 159 159 162 164 160 157 155 154 153 149 147 147 145 144 143
275 264 261 258 248 241 238 235 243 260 266 270 283 303 323 167 150 151 154 164 164 164 160 161 160 158 156 156 157 157 157 157 153 151 151 152 150 146 142 140 141 142 144 143
276 283 280 252 232 231 233 232 232 244 256 283 291 297 294 8 125 156 158 164 168 168 163 164 164 158 159 156 150 151 152 150 149 148 148 148 146 144 145 144 142 142 141 140
272 280 244 249 231 232 237 240 238 248 274 278 281 272 261 12 163 189 174 178 175 168 160 156 154 151 149 148 150 150 150 151 150 149 147 146 146 147 145 143 144 142 140 138
250 257 271 270 256 241 241 240 247 256 275 291 295 271 267 309 285 231 215 206 184 167 157 153 155 153 148 150 151 152 155 157 155 152 150 149 150 149 145 142 140 140 138 137
241 251 249 272 302 275 265 245 282 277 289 299 302 255 263 307 308 296 260 199 165 151 152 155 158 154 153 156 158 161 160 157 154 152 151 150 149 144 141 140 137 132 128 131
234 248 265 285 301 308 218 258 336 316 310 307 278 269 290 304 305 281 265 209 154 151 158 163 160 158 160 162 166 160 150 148 149 150 148 146 142 141 139 135 131 128 124 121
220 234 250 302 299 221 272 321 342 337 324 314 300 298 304 308 310 302 274 201 168 162 164 164 161 162 165 169 160 148 146 146 147 147 145 143 140 138 137 137 134 132 126 118
223 240 282 305 307 310 334 326 331 323 309 307 307 306 310 309 303 297 266 225 193 180 171 171 169 167 169 165 153 148 145 147 146 143 141 143 143 143 142 142 141 141 137 134
257 260 277 287 291 289 300 299 307 311 305 300 293 298 305 303 298 296 277 263 221 182 177 179 173 169 166 158 154 150 148 147 146 144 141 138 139 144 147 149 146 145 145 142
265 271 282 274 280 285 289 290 295 296 296 294 292 291 292 292 287 282 277 255 221 205 196 185 173 165 158 156 154 150 148 147 146 143 140 134 126 126 137 144 153 152 154 151
260 271 278 286 295 296 293 289 289 294 296 291 281 281 282 280 277 271 263 244 227 226 208 183 169 162 160 159 157 153 151 150 149 145 139 134 124 102 85 108 120 124 133 136
264 274 276 281 285 284 284 286 286 284 285 285 278 272 273 275 274 263 251 229 217 219 210 184 170 166 165 163 161 158 155 152 150 147 145 142 138 132 120 96 96 111 124 129
271 273 273 272 274 275 276 279 279 278 276 272 269 267 263 266 266 253 242 232 218 208 199 184 172 170 166 162 157 153 150 150 149 148 147 146 143 139 138 136 129 114 118 128
264 265 269 275 277 276 272 272 272 272 270 271 265 259 254 250 251 250 241 219 204 195 189 178 173 170 161 157 154 151 150 149 145 142 140 140 138 135 135 133 133 131 125 127
275 273 271 273 275 275 274 267 264 264 262 263 262 257 250 245 244 242 226 197 191 194 187 177 172 163 155 151 148 147 146 143 143 142 140 140 139 138 138 138 138 140 143 143
281 277 277 277 277 276 273 269 266 264 261 257 254 249 241 229 226 226 218 204 193 190 184 174 163 152 150 150 147 145 143 143 139 138 142 143 143 143 142 141 142 143 144 151
279 281 278 276 277 278 274 269 266 263 259 253 244 232 220 213 213 212 196 174 157 156 169 162 151 146 146 146 143 142 142 143 144 142 140 140 139 140 140 140 141 139 139 145
290 288 288 285 281 280 277 271 267 264 260 246 234 228 220 213 204 195 177 171 170 174 172 154 148 146 144 144 140 140 140 139 137 136 135 138 136 136 137 138 139 140 141 141
297 292 291 290 286 280 275 273 266 260 255 240 228 224 215 202 189 182 176 185 193 175 156 151 147 146 144 144 138 141 141 141 140 139 138 140 139 139 138 138 138 139 141 143
304 300 296 292 288 283 276 271 264 254 247 232 223 216 204 190 181 175 172 180 171 153 151 149 150 149 146 145 138 142 142 142 142 143 142 141 140 139 139 139 139 141 142 142
305 300 297 294 291 287 280 271 261 250 238 226 217 200 185 180 176 171 176 177 159 155 153 153 150 148 148 143 142 141 141 140 140 140 140 142 142 142 142 141 141 141 141 141
304 301 299 296 292 289 287 276 258 243 230 215 202 192 186 181 177 172 173 165 155 153 151 150 148 146 144 141 140 140 141 140 141 141 141 141 141 142 142 141 141 141 141 141
304 303 299 296 292 287 283 278 261 241 218 203 197 189 175 166 165 163 148 151 153 146 144 146 146 146 142 140 137 138 139 139 137 136 135 134 135 136 137 139 138 139 140 140
301 300 298 295 289 281 275 266 246 214 183 166 161 158 154 156 157 149 143 145 145 140 138 145 144 141 139 135 136 137 137 137 136 135 136 137 137 137 136 138 139 140 142 143
301 298 294 288 281 274 265 249 227 195 167 155 143 133 126 123 128 135 135 136 137 137 137 139 139 136 132 130 129 130 131 133 131 131 135 135 135 135 135 137 136 139 140 141
300 299 297 298 295 281 259 231 202 188 175 162 147 132 128 128 130 132 132 133 134 133 131 130 130 130 128 127 127 126 126 127 129 131 132 132 133 134 136 136 137 137 138 140
Height
1388 1384 1383 1380 1378 1378 1379 1378 1377 1363 1357 1350 1347 1345 1343 1342 1343 1345 1348 1352 1355 1358 1362 1366 1370 1374 1379 1384 1388 1394 1400 1406 1411 1417 1423 1429 1434 1440 1445 1449 1453 1458 1462 1465
1386 1379 1376 1374 1371 1371 1370 1368 1367 1362 1355 1348 1346 1345 1344 1343 1343 1345 1347 1350 1353 1356 1359 1363 1366 1371 1375 1380 1385 1391 1396 1402 1408 1414 1420 1425 1431 1436 1441 1446 1450 1454 1458 1461
1386 1377 1374 1371 1363 1363 1361 1358 1358 1357 1352 1349 1347 1346 1345 1345 1345 1346 1347 1349 1352 1354 1357 1361 1364 1368 1373 1377 1383 1388 1393 1399 1405 1411 1416 1422 1427 1432 1437 1442 1447 1451 1455 1458
1389 1382 1382 1361 1352 1352 1354 1352 1351 1350 1349 1348 1346 1345 1345 1345 1345 1345 1346 1348 1350 1353 1356 1359 1363 1367 1371 1376 1381 1386 1391 1396 1402 1407 1413 1418 1424 1429 1434 1439 1443 1448 1451 1455
1390 1382 1369 1354 1350 1349 1351 1349 1349 1349 1348 1346 1344 1342 1343 1344 1344 1344 1345 1347 1349 1351 1354 1357 1361 1365 1369 1374 1378 1383 1388 1393 1398 1404 1409 1415 1420 1425 1431 1436 1440 1445 1449 1452
1388 1382 1370 1353 1346 1345 1349 1350 1348 1347 1347 1346 1344 1346 1343 1343 1343 1343 1344 1346 1348 1350 1353 1356 1359 1363 1367 1371 1375 1380 1385 1390 1396 1401 1407 1412 1417 1423 1428 1433 1438 1442 1446 1450
1385 1380 1364 1350 1346 1345 1355 1354 1349 1347 1347 1346 1346 1347 1345 1342 1342 1342 1343 1344 1346 1348 1351 1354 1357 1360 1364 1368 1373 1378 1383 1388 1394 1399 1405 1410 1415 1421 1426 1430 1435 1439 1443 1447
1377 1376 1366 1350 1347 1350 1351 1349 1347 1346 1346 1346 1344 1343 1341 1340 1340 1340 1341 1342 1343 1346 1348 1352 1355 1358 1361 1365 1371 1376 1381 1386 1391 1396 1402 1408 1413 1418 1423 1428 1432 1437 1441 1444
1366 1362 1352 1350 1349 1349 1348 1348 1346 1345 1344 1344 1342 1340 1339 1338 1338 1338 1339 1339 1341 1343 1345 1349 1352 1355 1358 1362 1367 1372 1378 1383 1388 1394 1399 1405 1410 1415 1420 1425 1429 1433 1437 1441
1358 1351 1349 1347 1346 1346 1346 1345 1344 1343 1342 1341 1340 1338 1337 1336 1335 1335 1335 1336 1337 1339 1341 1344 1348 1351 1355 1359 1364 1369 1374 1379 1385 1390 1396 1402 1407 1412 1417 1422 1426 1430 1434 1438
1354 1350 1347 1344 1344 1344 1343 1342 1341 1340 1340 1338 1336 1335 1334 1332 1332 1332 1332 1332 1333 1335 1337 1340 1344 1348 1351 1355 1359 1364 1370 1375 1381 1386 1392 1398 1404 1410 1415 1420 1424 1428 1432 1436
1349 1346 1345 1342 1341 1341 1339 1338 1337 1336 1334 1333 1332 1330 1329 1328 1327 1327 1328 1328 1329 1331 1333 1336 1340 1343 1347 1351 1355 1360 1365 1371 1376 1382 1388 1394 1400 1406 1413 1419 1423 1428 1432 1435
1343 1341 1340 1338 1337 1337 1336 1334 1333 1331 1330 1328 1326 1326 1324 1323 1323 1323 1323 1324 1325 1327 1329 1332 1335 1338 1342 1346 1351 1356 1360 1365 1371 1378 1384 1390 1396 1402 1408 1415 1421 1425 1429 1433
1337 1336 1334 1332 1331 1331 1330 1328 1327 1325 1324 1323 1321 1321 1320 1319 1318 1318 1318 1319 1321 1323 1324 1327 1330 1333 1337 1342 1347 1352 1357 1363 1368 1374 1380 1387 1393 1399 1405 1410 1416 1421 1426 1430
1331 1330 1328 1326 1325 1324 1323 1322 1321 1319 1317 1316 1315 1314 1314 1313 1313 1313 1314 1315 1316 1318 1319 1322 1325 1329 1333 1338 1343 1348 1354 1359 1365 1372 1378 1385 1391 1397 1403 1409 1413 1418 1422 1427
1323 1322 1321 1320 1318 1317 1316 1315 1314 1312 1311 1310 1309 1309 1308 1308 1308 1308 1309 1310 1311 1312 1315 1317 1321 1324 1329 1334 1340 1345 1351 1357 1362 1369 1376 1382 1389 1395 1400 1406 1411 1415 1420 1423
1318 1315 1314 1313 1312 1310 1309 1308 1307 1306 1305 1304 1303 1303 1303 1303 1303 1303 1304 1306 1308 1309 1311 1313 1317 1321 1326 1331 1336 1342 1348 1355 1361 1367 1373 1380 1386 1392 1398 1403 1408 1413 1418 1422
1311 1310 1309 1308 1306 1304 1302 1301 1300 1299 1298 1298 1298 1298 1298 1298 1298 1299 1301 1303 1304 1306 1308 1311 1315 1319 1324 1329 1334 1340 1346 1352 1358 1365 1372 1378 1384 1390 1396 1401 1406 1411 1415 1419
1305 1304 1302 1300 1299 1297 1295 1293 1292 1292 1291 1291 1291 1291 1292 1293 1294 1296 1297 1299 1300 1302 1305 1308 1312 1317 1321 1327 1333 1339 1344 1350 1357 1364 1370 1377 1383 1389 1394 1399 1404 1409 1413 1417
1300 1298 1295 1293 1291 1289 1287 1285 1285 1284 1284 1285 1285 1286 1287 1288 1290 1291 1293 1295 1296 1298 1302 1306 1310 1315 1320 1326 1331 1337 1343 1349 1355 1362 1368 1375 1381 1387 1392 1397 1402 1407 1411 1415
1294 1291 1288 1286 1283 1281 1279 1278 1277 1276 1277 1278 1279 1280 1281 1283 1285 1287 1289 1291 1294 1297 1300 1304 1308 1313 1319 1324 1330 1336 1342 1348 1354 1360 1367 1373 1379 1385 1390 1395 1400 1404 1408 1412
1289 1285 1281 1278 1275 1273 1271 1270 1270 1270 1270 1271 1273 1275 1276 1278 1281 1283 1285 1287 1290 1294 1298 1302 1307 1312 1317 1323 1329 1335 1341 1347 1353 1359 1366 1371 1377 1382 1388 1393 1398 1402 1406 1410
1282 1279 1275 1272 1269 1266 1264 1263 1263 1264 1264 1266 1267 1269 1271 1274 1276 1279 1281 1285 1288 1292 1296 1300 1305 1311 1317 1322 1328 1334 1340 1346 1352 1358 1364 1370 1376 1381 1386 1391 1396 1400 1404 1408
1276 1272 1269 1265 1263 1260 1257 1256 1257 1258 1260 1261 1263 1265 1267 1270 1272 1275 1278 1282 1286 1290 1294 1299 1305 1311 1316 1322 1327 1333 1339 1346 1351 1357 1363 1369 1374 1380 1385 1389 1394 1398 1402 1405
1270 1266 1262 1259 1257 1254 1253 1252 1253 1254 1255 1257 1259 1261 1264 1267 1269 1272 1276 1280 1284 1289 1294 1299 1305 1310 1316 1321 1327 1333 1339 1345 1350 1356 1362 1367 1373 1378 1383 1388 1392 1396 1400 1403
1265 1261 1258 1255 1253 1251 1250 1250 1250 1250 1251 1253 1255 1258 1261 1264 1267 1270 1274 1278 1283 1288 1293 1298 1303 1309 1315 1321 1326 1332 1338 1344 1350 1355 1361 1366 1372 1377 1382 1386 1390 1394 1398 1401
1260 1256 1253 1249 1248 1247 1247 1247 1247 1248 1249 1251 1252 1255 1258 1262 1265 1269 1272 1277 1282 1287 1292 1297 1302 1308 1314 1320 1326 1332 1338 1343 1349 1354 1360 1365 1370 1375 1380 1384 1388 1392 1396 1399